カタログに戻る

CZ-6A DEB

運用中SSO
NORAD 54935·DEBRIS·🇨🇳 China

打ち上げ Nov 11, 2022 から Taiyuan Satellite Launch Center

Loading…

次のパス (今後24時間)

TLE

最新Source: Space-Track

元期: Sep 14, 2026, 01:15 UTC

1 54935U 22151RY  26257.05216426  .00002033  00000-0  74951-3 0  9992
2 54935  98.7278 283.3023 0006561 101.5263 258.6658 14.33630289199352

AllMySatでCZ-6A DEBをリアルタイム追跡

Download on the App Store